map of DKR home
Great Circle Mapper logo
DKR - Airport
Location
City:  Dakar, Dakar, Senegal
Near (Alt.):Yoff
Name:Léopold Sédar Senghor International Airport
Old (Alt.):Dakar Yoff International Airport
ICAO:GOOY
IATA:DKR

Details
Type:Airport (Aerodrome, Airfield)
Use:Public/Civil, Military, International (customs port of entry)
Latitude:14°44'23"N (14.739708)
Longitude:17°29'25"W (-17.490224)
Datum:WGS 1984
Elevation:85 ft (26 m)
Variation:7.49°W (WMM2015 magnetic declination)
0.11° annual change
Runways:2
Longest:11450 × 148 ft (3490 × 45 m), paved

Time
Time Zone:UTC+0
Local Time:

Weather
METAR:GOOY 260630Z 35006KT CAVOK 26/24 Q1011 NOSIG
TAF:GOOY 260530Z 2606/2712 32008KT 9999 SCT012= TAF GBYD 260530Z 2606/2712 30008KT 9999 SCT013 PROB40
TEMPO 2622/2704 22007KT 4500 TSRA BKN013 FEW020CB

Related Locations
Nearby:
Farthest:OLJ: 12178 mi / 19599 km
Olpoi [North West Santo], Espíritu Santo Island, SAM, VU

Find:

   beyond  
but within

Other Information
Maps:
NOTAMs:
Links:
Sources:

  
flag of Senegal   

Airport Diagram

Airport diagram for DKR

Airport diagram (OBSOLETE) from NGA

Sectional Chart

Flight Planning
at skyvector.com

Satellite Image

Google Maps Satellite view

 

Copyright © 2004-2016 Karl L. Swartz. All rights reserved.
The Great Circle Mapper name and logo are trademarks of the Great Circle Mapper.
All other trademarks mentioned herein belong to their respective owners.
Please see credits for attibutions and further copyright information.

  Follow gcmap on Facebook Follow gcmap on Twitter Follow gcmap on Google+ GCmap on LinkedIn

hCard Microformat

Geo Microformat